This is the latest recevied weather packets stored in our database for station/object IR3AS. If no packets are shown the sender has not sent any weather packets the latest 10 day(s).
| Time | Temp. | Humidity | Pressure | Rain* | Wind** | Luminosity | Snow |
|---|---|---|---|---|---|---|---|
| 1788113992 | 12.78° C | 83% | 868.2 hPa | 0 mm | - | - | - |
| 1788113691 | 12.78° C | 83% | 868 hPa | 0 mm | - | - | - |
| 1788113392 | 12.78° C | 82% | 868 hPa | 0 mm | - | - | - |
| 1788113092 | 12.78° C | 81% | 868.1 hPa | 0 mm | - | - | - |
| 1788112792 | 12.78° C | 81% | 868.3 hPa | 0 mm | - | - | - |
| 1788112491 | 12.78° C | 81% | 868.2 hPa | 0 mm | - | - | - |
| 1788112192 | 13.33° C | 80% | 868 hPa | 0 mm | - | - | - |
| 1788111892 | 13.33° C | 78% | 868 hPa | 0 mm | - | - | - |
| 1788111592 | 13.89° C | 78% | 868.1 hPa | 0 mm | - | - | - |
| 1788111291 | 13.89° C | 78% | 868 hPa | 0 mm | - | - | - |
| 1788110992 | 13.89° C | 78% | 867.8 hPa | 0 mm | - | - | - |
| 1788110692 | 13.89° C | 78% | 867.8 hPa | 0 mm | - | - | - |
| 1788110392 | 13.89° C | 77% | 868 hPa | 0 mm | - | - | - |
| 1788110092 | 14.44° C | 76% | 868 hPa | 0 mm | - | - | - |
| 1788109792 | 14.44° C | 75% | 868.3 hPa | 0 mm | - | - | - |
| 1788109492 | 15° C | 72% | 868.2 hPa | 0 mm | - | - | - |
| 1788109192 | 15.56° C | 70% | 868.2 hPa | 0 mm | - | - | - |
| 1788108892 | 16.67° C | 68% | 868.2 hPa | 0 mm | - | - | - |
| 1788108592 | 17.78° C | 65% | 868.1 hPa | 0 mm | - | - | - |
| 1788108292 | 17.78° C | 64% | 868.3 hPa | 0 mm | - | - | - |
| 1788107992 | 18.33° C | 64% | 868.2 hPa | 0 mm | - | - | - |
| 1788107693 | 17.78° C | 63% | 868.5 hPa | 0 mm | - | - | - |
| 1788107392 | 18.33° C | 62% | 868.3 hPa | 0 mm | - | - | - |
| 1788107092 | 18.33° C | 62% | 868.3 hPa | 0 mm | - | - | - |
| 1788106792 | 18.33° C | 62% | 868.4 hPa | 0 mm | - | - | - |
* Rain latest hour (hover to see other rain measurements)
** Current wind speed in m/s (hover to see current wind gust speed)